Content
SEND FEEDBACK

Daily
Averages
Monthly
Summary
United States of America

CLAREMONT - POMONA COLLEGE, CALIFORNIA


Home > North America > United States > California
Elevation: 1200 feet     Latitude: 34 06N     Longitude: 117 43W

WEATHER
 
SELECT A DAY
Number of Records: 179,659;   Date Range: 1/1/95 - 8/28/14
 
SHARE

PRINT THIS DATA

[ ← Previous Day ]
WEATHER ALMANAC - FEBRUARY 18, 2013
[ Next Day → ]
[ °C ]   °F
Weather ElementAverageHighLow
Temperature51.9 °F64 °F (2:53 pm)48 °F (1:53 am)
Dewpoint43.7 °F46 °F (3:53 am)37.9 °F (3:53 pm)
Humidity75.3 %90 % (3:53 am)38 % (3:53 pm)
Barometer30.01 in30.07 in (7:53 am)29.93 in (4:53 pm)
Wind Speed4.4 mph13.8 mph (4:53 pm)
Weather ElementAverage
Visibility6.1 mi
Wind DirectionSE (140.3 °)

Weather ElementTotal
Precipitation---
Heating Degree Days9 (Base 65)
Growing Degree Days6 (Base 50)
Averaged from 30 records on February 18, 2013
WEATHER CONDITIONS BREAKOUT
WIND DIRECTION BREAKOUT
WEATHER BY HOUR - FEBRUARY 18, 2013
[ °C ]   °F
Local TimeTemperatureDewpointHumidityBarometerVisibilityWind DirectionWind SpeedGust SpeedPrecipitationEventsConditions
1:06 AM48.2 °F44.6 °F87 %30.03 in5.0 miCalmMostly Cloudy
1:53 AM48.0 °F45.0 °F89 %30.01 in5.0 miCalmOvercast
2:30 AM48.2 °F44.6 °F87 %30.01 in4.0 miCalmOvercast
2:53 AM48.0 °F45.0 °F89 %29.99 in4.0 miCalmOvercast
3:53 AM48.9 °F46.0 °F90 %30.00 in3.0 miCalmOvercast
4:53 AM48.9 °F45.0 °F86 %30.03 in3.0 miCalmOvercast
5:53 AM48.2 °F44.6 °F87 %30.05 in3.0 miCalmOvercast
6:53 AM48.9 °F44.1 °F83 %30.06 in2.5 miCalmHaze
7:31 AM48.2 °F44.6 °F87 %30.06 in3.0 miSouth (190°)3.5 mphHaze
7:53 AM48.9 °F44.1 °F83 %30.07 in3.0 miSouth (180°)3.5 mphHaze
8:40 AM48.2 °F44.6 °F87 %30.07 in3.0 miSSE (150°)5.8 mphOvercast
8:53 AM48.0 °F44.1 °F86 %30.07 in3.0 miSSE (160°)6.9 mphOvercast
9:22 AM48.2 °F44.6 °F87 %30.06 in3.0 miSSE (160°)3.5 mphHaze
9:53 AM48.9 °F43.0 °F80 %30.06 in4.0 miVariable3.5 mphHaze
10:53 AM51.1 °F43.0 °F74 %30.06 in4.0 miCalmHaze
11:20 AM51.8 °F42.8 °F71 %30.05 in4.0 miCalmHaze
11:53 AM54.0 °F43.0 °F66 %30.03 in4.0 miWNW (300°)3.5 mphHaze
12:53 PM59.0 °F42.1 °F53 %30.00 in5.0 miWest (280°)3.5 mphHaze
1:53 PM62.1 °F42.1 °F48 %29.97 in7.0 miWest (270°)6.9 mphPartly Cloudy
2:53 PM64.0 °F41.0 °F43 %29.95 in9.0 miWest (280°)4.6 mphClear
3:53 PM64.0 °F37.9 °F38 %29.94 in10.0 miVariable6.9 mphClear
4:53 PM61.0 °F42.1 °F50 %29.93 in10.0 miSW (220°)13.8 mphClear
5:53 PM55.9 °F44.1 °F64 %29.93 in10.0 miWSW (240°)8.1 mphPartly Cloudy
6:53 PM53.1 °F44.1 °F71 %29.96 in10.0 miWest (270°)8.1 mphPartly Cloudy
7:53 PM50.0 °F44.1 °F80 %29.98 in10.0 miWest (260°)8.1 mphPartly Cloudy
8:20 PM50.0 °F44.6 °F82 %29.98 in10.0 miWest (270°)9.2 mphMostly Cloudy
8:53 PM51.1 °F45.0 °F80 %29.99 in10.0 miWSW (240°)6.9 mphOvercast
9:53 PM51.1 °F44.1 °F77 %30.00 in10.0 miWest (260°)9.2 mphOvercast
10:53 PM51.1 °F44.1 °F77 %29.99 in10.0 miWest (260°)9.2 mphOvercast
11:53 PM50.0 °F43.0 °F77 %29.98 in10.0 miSW (220°)6.9 mphOvercast
Hourly data recorded from KONT, located miles away from Claremont - Pomona College, California







STORIES FROM OUR PARTNERS